Weather History for Biloxi, MS

Change the Weather History Date:

Sunday, January 6, 2013

  Actual Average Record
Temperature  
Mean Temperature 48 °F -  
Max Temperature 51 °F 60 °F 73 °F (2007)
Min Temperature 44 °F 41 °F 23 °F (2014)
Degree Days  
Heating Degree Days 18    
Moisture  
Dew Point 44 °F    
Average Humidity 88    
Maximum Humidity 100    
Minimum Humidity 57    
Precipitation  
Precipitation 0.13 in - - ()
Sea Level Pressure  
Sea Level Pressure 30.24 in    
Wind  
Wind Speed 9 mph (NNE)    
Max Wind Speed 13 mph    
Max Gust Speed -    
Visibility 10 miles    
Events Rain    
Averages and records for this station are not official NWS values.
T = Trace of Precipitation, MM = Missing Value Source: NWS Daily Summary

Daily Weather History Graph

Daily Weather History Graph

Search for Another Location

Airport:

Trip Planner

Search our weather history database for the weather conditions in past years. The results will help you decide how hot, cold, wet, or windy it might be!

Date:

Astronomy

Jan. 06, 2013 Rise Set
Actual Time 6:53 AM CST 5:10 PM CST
Civil Twilight 6:27 AM CST 5:36 PM CST
Nautical Twilight 5:57 AM CST 6:06 PM CST
Astronomical Twilight 5:28 AM CST 6:35 PM CST
Moon 1:16 AM CST (1/6) 12:29 PM CST (1/6)
Length of Visible Light 11h 09m
Length of Day
10h 16m
Waning Crescent, 33% of the Moon is Illuminated
Jan 6
Waning Crescent
Jan 11
New
Jan 18
First Quarter
Jan 26
Full
Feb 3
Last Quarter

Hourly Weather History & Observations

Time (CST) Temp. Windchill Dew Point Humidity Pressure Visibility Wind Dir Wind Speed Gust Speed Precip Events Conditions
12:55 AM 50.9 °F - 36.1 °F 57% 30.23 in 10.0 mi ENE 5.8 mph - N/A   Overcast
1:37 AM 50.0 °F - 37.4 °F 62% 30.23 in 10.0 mi NE 5.8 mph - N/A   Overcast
1:55 AM 50.0 °F - 37.9 °F 63% 30.23 in 10.0 mi NNE 4.6 mph - N/A   Overcast
2:48 AM 50.0 °F - 39.2 °F 66% 30.21 in 10.0 mi NE 5.8 mph - N/A   Overcast
2:55 AM 49.6 °F - 38.8 °F 66% 30.21 in 10.0 mi NE 8.1 mph - N/A   Overcast
3:55 AM 48.9 °F - 39.9 °F 71% 30.19 in 10.0 mi NE 8.1 mph - N/A   Overcast
4:27 AM 48.2 °F - 41.0 °F 76% 30.19 in 10.0 mi NE 6.9 mph - N/A   Overcast
4:55 AM 48.0 °F - 41.5 °F 78% 30.19 in 10.0 mi NE 8.1 mph - N/A   Overcast
5:50 AM 46.4 °F 41.5 °F 42.8 °F 87% 30.21 in 10.0 mi NE 10.4 mph - N/A   Overcast
5:55 AM 46.6 °F - 43.0 °F 87% 30.20 in 10.0 mi NNE 12.7 mph - N/A   Overcast
6:34 AM 46.4 °F 41.1 °F 42.8 °F 87% 30.23 in 10.0 mi NNE 11.5 mph - N/A   Overcast
6:50 AM 46.4 °F 41.1 °F 42.8 °F 87% 30.24 in 10.0 mi NNE 11.5 mph - N/A   Overcast
6:53 AM 46.4 °F 41.1 °F 42.8 °F 87% 30.24 in 10.0 mi NNE 11.5 mph - N/A   Overcast
6:55 AM 45.7 °F 40.2 °F 43.2 °F 91% 30.24 in 10.0 mi NNE 11.5 mph - N/A   Overcast
7:01 AM 44.6 °F 38.4 °F 42.8 °F 93% 30.24 in 10.0 mi NNE 12.7 mph - N/A   Overcast
7:55 AM 45.7 °F 39.8 °F 43.2 °F 91% 30.25 in 10.0 mi NE 12.7 mph - N/A   Overcast
8:04 AM 46.4 °F 40.7 °F 42.8 °F 87% 30.26 in 10.0 mi NNE 12.7 mph - N/A   Overcast
8:27 AM 44.6 °F 38.8 °F 42.8 °F 93% 30.28 in 10.0 mi North 11.5 mph - N/A Rain Light Rain
8:33 AM 44.6 °F 39.2 °F 42.8 °F 93% 30.28 in 10.0 mi North 10.4 mph - N/A Rain Light Rain
8:55 AM 45.0 °F 39.3 °F 43.2 °F 93% 30.26 in 5.0 mi NE 11.5 mph - 0.02 in Rain Light Rain
8:59 AM 44.6 °F 38.8 °F 42.8 °F 93% 30.26 in 4.0 mi NE 11.5 mph - N/A Rain Rain
9:01 AM 44.6 °F 38.8 °F 42.8 °F 93% 30.26 in 4.0 mi NNE 11.5 mph - N/A Rain Light Rain
9:05 AM 44.6 °F 38.8 °F 42.8 °F 93% 30.26 in 6.0 mi NE 11.5 mph - N/A Rain Light Rain
9:21 AM 44.6 °F 39.2 °F 42.8 °F 93% 30.28 in 5.0 mi North 10.4 mph - N/A Rain Light Rain
9:28 AM 44.6 °F 39.2 °F 42.8 °F 93% 30.27 in 8.0 mi NNE 10.4 mph - N/A Rain Light Rain
9:49 AM 44.6 °F 38.4 °F 44.6 °F 100% 30.27 in 10.0 mi NNE 12.7 mph - N/A Rain Light Rain
9:55 AM 45.3 °F 40.1 °F 43.9 °F 95% 30.27 in 10.0 mi North 10.4 mph - 0.07 in Rain Light Rain
10:03 AM 44.6 °F 38.8 °F 44.6 °F 100% 30.27 in 10.0 mi NNE 11.5 mph - N/A Rain Light Rain
10:15 AM 46.4 °F 41.1 °F 44.6 °F 93% 30.27 in 10.0 mi NNE 11.5 mph - N/A Rain Light Rain
10:55 AM 46.2 °F 41.2 °F 44.2 °F 93% 30.27 in 10.0 mi NNE 10.4 mph - 0.03 in Rain Light Rain
11:05 AM 46.4 °F 41.5 °F 44.6 °F 93% 30.27 in 10.0 mi NNE 10.4 mph - N/A   Overcast
11:47 AM 46.4 °F 41.5 °F 44.6 °F 93% 30.25 in 10.0 mi NNE 10.4 mph - N/A Rain Light Rain
11:49 AM 46.4 °F 42.4 °F 44.6 °F 93% 30.25 in 10.0 mi NNE 8.1 mph - N/A Rain Light Rain
11:55 AM 47.3 °F - 45.3 °F 93% 30.25 in 10.0 mi NNE 10.4 mph - 0.00 in Rain Light Rain
11:59 AM 48.2 °F - 44.6 °F 87% 30.25 in 10.0 mi North 9.2 mph - N/A Rain Light Rain
12:17 PM 48.2 °F - 46.4 °F 93% 30.24 in 10.0 mi NNE 9.2 mph - N/A Rain Light Rain
12:22 PM 48.2 °F - 46.4 °F 93% 30.24 in 10.0 mi NNE 10.4 mph - N/A   Overcast
12:55 PM 48.7 °F - 46.8 °F 93% 30.21 in 10.0 mi NNE 11.5 mph - 0.01 in   Overcast
1:07 PM 48.2 °F - 46.4 °F 93% 30.21 in 10.0 mi NNE 11.5 mph - N/A Rain Light Rain
1:17 PM 48.2 °F - 46.4 °F 93% 30.21 in 10.0 mi NNE 11.5 mph - N/A   Overcast
1:27 PM 48.2 °F - 46.4 °F 93% 30.21 in 10.0 mi NNE 9.2 mph - N/A Rain Light Rain
1:43 PM 48.2 °F - 46.4 °F 93% 30.21 in 10.0 mi NNE 10.4 mph - N/A   Overcast
1:55 PM 49.1 °F - 46.6 °F 91% 30.21 in 10.0 mi NNE 9.2 mph - 0.00 in   Overcast
2:27 PM 50.0 °F - 46.4 °F 87% 30.21 in 10.0 mi NE 9.2 mph - N/A   Overcast
2:55 PM 49.5 °F - 46.9 °F 91% 30.22 in 10.0 mi NNE 8.1 mph - N/A   Overcast
3:55 PM 50.5 °F - 47.5 °F 89% 30.22 in 10.0 mi NNE 9.2 mph - N/A   Overcast
4:22 PM 51.8 °F - 48.2 °F 88% 30.22 in 10.0 mi North 9.2 mph - N/A   Overcast
4:55 PM 50.7 °F - 46.8 °F 86% 30.22 in 10.0 mi NNE 8.1 mph - N/A   Overcast
5:55 PM 50.2 °F - 46.4 °F 87% 30.25 in 10.0 mi North 6.9 mph - N/A   Overcast
6:55 PM 49.5 °F - 46.0 °F 88% 30.27 in 10.0 mi North 6.9 mph - N/A   Overcast
7:55 PM 48.0 °F - 45.0 °F 89% 30.28 in 10.0 mi North 6.9 mph - N/A   Partly Cloudy
8:55 PM 46.4 °F 43.5 °F 43.9 °F 91% 30.27 in 10.0 mi NNE 5.8 mph - N/A   Clear
9:55 PM 45.1 °F 42.8 °F 42.8 °F 91% 30.30 in 10.0 mi NNE 4.6 mph - N/A   Clear
10:55 PM 44.8 °F 41.6 °F 42.1 °F 90% 30.30 in 10.0 mi NNE 5.8 mph - N/A   Clear
11:55 PM 44.4 °F 41.2 °F 41.4 °F 89% 30.30 in 10.0 mi NNE 5.8 mph - N/A   Clear